Time,TemperatureF,DewpointF,PressureIn,WindDirection,WindDirectionDegrees,WindSpeedMPH,WindSpeedGustMPH,Humidity,HourlyPrecipIn,Conditions,Clouds,dailyrainin,SolarRadiationWatts/m^2,SoftwareType,DateUTC
2013-08-04 00:13:00,74.2,73.0,30.09,SSE,162,0.0,0.0,95,0.00,,,0.00,0,weatherlink.com 1.10,2013-08-04 04:13:00,
2013-08-04 00:27:00,74.2,73.0,30.09,SSE,162,0.0,0.0,95,0.00,,,0.00,0,weatherlink.com 1.10,2013-08-04 04:27:00,
2013-08-04 00:43:00,74.1,73.0,30.09,SSE,162,0.0,0.0,95,0.00,,,0.00,0,weatherlink.com 1.10,2013-08-04 04:43:00,
2013-08-04 00:58:00,74.1,73.0,30.09,SSE,162,0.0,0.0,95,0.00,,,0.00,0,weatherlink.com 1.10,2013-08-04 04:58:00,
2013-08-04 01:13:00,74.1,73.0,30.09,SSE,162,0.0,0.0,95,0.00,,,0.00,0,weatherlink.com 1.10,2013-08-04 05:13:00,
2013-08-04 01:28:00,74.3,73.0,30.08,SSE,162,0.0,0.0,96,0.00,,,0.00,0,weatherlink.com 1.10,2013-08-04 05:28:00,
2013-08-04 01:43:00,74.5,73.0,30.08,SSE,162,0.0,0.0,95,0.00,,,0.00,0,weatherlink.com 1.10,2013-08-04 05:43:00,
2013-08-04 01:58:00,74.4,73.0,30.07,SSE,162,0.0,0.0,95,0.00,,,0.00,0,weatherlink.com 1.10,2013-08-04 05:58:00,
2013-08-04 02:13:00,74.5,73.0,30.06,SSE,162,0.0,0.0,95,0.00,,,0.00,0,weatherlink.com 1.10,2013-08-04 06:13:00,
2013-08-04 02:28:00,74.4,73.0,30.06,SSE,162,0.0,0.0,95,0.00,,,0.00,0,weatherlink.com 1.10,2013-08-04 06:28:00,
2013-08-04 02:43:00,74.4,73.0,30.06,SSE,162,0.0,0.0,96,0.00,,,0.00,0,weatherlink.com 1.10,2013-08-04 06:43:00,
2013-08-04 02:58:00,74.4,73.0,30.06,SSE,162,0.0,0.0,95,0.00,,,0.00,0,weatherlink.com 1.10,2013-08-04 06:58:00,
2013-08-04 03:13:00,74.4,73.0,30.06,SSE,162,0.0,0.0,96,0.00,,,0.00,0,weatherlink.com 1.10,2013-08-04 07:13:00,
2013-08-04 03:28:00,74.4,73.0,30.06,SSE,162,0.0,0.0,96,0.00,,,0.00,0,weatherlink.com 1.10,2013-08-04 07:28:00,
2013-08-04 03:43:00,74.4,73.0,30.05,SSE,162,0.0,0.0,96,0.00,,,0.00,0,weatherlink.com 1.10,2013-08-04 07:43:00,
2013-08-04 03:58:00,74.6,73.0,30.05,SSE,162,0.0,0.0,96,0.00,,,0.00,0,weatherlink.com 1.10,2013-08-04 07:58:00,
2013-08-04 04:13:00,74.6,73.0,30.05,SSE,162,0.0,0.0,96,0.00,,,0.00,0,weatherlink.com 1.10,2013-08-04 08:13:00,
2013-08-04 04:28:00,74.4,73.0,30.05,SSE,162,0.0,0.0,96,0.00,,,0.00,0,weatherlink.com 1.10,2013-08-04 08:28:00,
2013-08-04 04:43:00,74.4,73.0,30.05,SSE,162,0.0,0.0,96,0.00,,,0.00,0,weatherlink.com 1.10,2013-08-04 08:43:00,
2013-08-04 04:58:00,74.6,73.0,30.04,SSE,162,0.0,0.0,96,0.00,,,0.00,0,weatherlink.com 1.10,2013-08-04 08:58:00,
2013-08-04 05:13:00,74.4,73.0,30.04,SSE,162,0.0,0.0,96,0.00,,,0.00,0,weatherlink.com 1.10,2013-08-04 09:13:00,
2013-08-04 05:28:00,74.3,73.0,30.05,SSE,162,0.0,0.0,96,0.00,,,0.00,0,weatherlink.com 1.10,2013-08-04 09:28:00,
2013-08-04 05:43:00,74.3,73.0,30.04,SSE,162,0.0,0.0,96,0.00,,,0.00,0,weatherlink.com 1.10,2013-08-04 09:43:00,
2013-08-04 05:58:00,74.4,73.0,30.05,SSE,162,0.0,0.0,96,0.00,,,0.00,0,weatherlink.com 1.10,2013-08-04 09:58:00,
2013-08-04 06:13:00,74.3,73.0,30.06,SSE,162,0.0,0.0,96,0.00,,,0.00,0,weatherlink.com 1.10,2013-08-04 10:13:00,
2013-08-04 06:28:00,74.3,73.0,30.06,SSE,162,0.0,0.0,96,0.00,,,0.00,0,weatherlink.com 1.10,2013-08-04 10:28:00,
2013-08-04 06:43:00,74.4,73.0,30.06,SSE,162,0.0,0.0,96,0.00,,,0.00,0,weatherlink.com 1.10,2013-08-04 10:43:00,
2013-08-04 06:58:00,74.6,73.0,30.07,SSE,162,0.0,0.0,96,0.00,,,0.00,11,weatherlink.com 1.10,2013-08-04 10:58:00,
2013-08-04 07:13:00,74.5,73.0,30.07,SSE,162,0.0,0.0,96,0.00,,,0.00,30,weatherlink.com 1.10,2013-08-04 11:13:00,
2013-08-04 07:28:00,75.2,74.0,30.07,SSE,162,0.0,0.0,96,0.00,,,0.00,77,weatherlink.com 1.10,2013-08-04 11:28:00,
2013-08-04 07:43:00,76.2,75.0,30.07,SSE,162,0.0,0.0,96,0.00,,,0.00,70,weatherlink.com 1.10,2013-08-04 11:43:00,
2013-08-04 07:58:00,77.3,76.0,30.07,SSE,162,0.0,0.0,96,0.00,,,0.00,86,weatherlink.com 1.10,2013-08-04 11:58:00,
2013-08-04 08:13:00,77.4,76.0,30.08,SSE,162,0.0,1.0,95,0.00,,,0.00,60,weatherlink.com 1.10,2013-08-04 12:13:00,
2013-08-04 08:28:00,77.4,76.0,30.08,SSE,162,0.0,0.0,95,0.00,,,0.00,81,weatherlink.com 1.10,2013-08-04 12:28:00,
2013-08-04 08:43:00,78.0,77.0,30.08,SSE,162,0.0,0.0,95,0.00,,,0.00,220,weatherlink.com 1.10,2013-08-04 12:43:00,
2013-08-04 08:58:00,78.8,78.0,30.08,SSE,162,0.0,1.0,96,0.00,,,0.00,439,weatherlink.com 1.10,2013-08-04 12:58:00,
2013-08-04 09:13:00,79.9,78.0,30.08,SSE,163,0.0,2.0,95,0.00,,,0.00,417,weatherlink.com 1.10,2013-08-04 13:13:00,
2013-08-04 09:28:00,81.8,79.0,30.08,SSE,163,0.0,1.0,92,0.00,,,0.00,545,weatherlink.com 1.10,2013-08-04 13:28:00,
2013-08-04 09:44:00,85.2,81.0,30.08,SSE,165,0.0,2.0,86,0.00,,,0.00,429,weatherlink.com 1.10,2013-08-04 13:44:00,
2013-08-04 09:59:00,86.9,80.0,30.08,South,177,0.0,2.0,79,0.00,,,0.00,371,weatherlink.com 1.10,2013-08-04 13:59:00,
2013-08-04 10:13:00,87.3,80.0,30.09,South,180,0.0,2.0,78,0.00,,,0.00,229,weatherlink.com 1.10,2013-08-04 14:13:00,
2013-08-04 10:29:00,88.7,79.0,30.08,South,182,1.0,2.0,74,0.00,,,0.00,796,weatherlink.com 1.10,2013-08-04 14:29:00,
2013-08-04 10:44:00,88.3,80.0,30.08,South,173,0.0,3.0,75,0.00,,,0.00,731,weatherlink.com 1.10,2013-08-04 14:44:00,
2013-08-04 10:59:00,90.1,79.0,30.08,SSW,209,2.0,4.0,70,0.00,,,0.00,956,weatherlink.com 1.10,2013-08-04 14:59:00,
2013-08-04 11:14:00,89.5,79.0,30.08,SW,227,0.0,2.0,70,0.00,,,0.00,183,weatherlink.com 1.10,2013-08-04 15:14:00,
2013-08-04 11:29:00,90.0,78.0,30.08,SSW,213,1.0,4.0,68,0.00,,,0.00,1037,weatherlink.com 1.10,2013-08-04 15:29:00,
2013-08-04 11:44:00,92.4,79.0,30.08,WSW,250,1.0,5.0,64,0.00,,,0.00,960,weatherlink.com 1.10,2013-08-04 15:44:00,
2013-08-04 11:59:00,91.0,78.0,30.07,NNW,341,1.0,3.0,65,0.00,,,0.00,346,weatherlink.com 1.10,2013-08-04 15:59:00,
2013-08-04 12:14:00,92.6,79.0,30.07,SW,235,1.0,4.0,64,0.00,,,0.00,724,weatherlink.com 1.10,2013-08-04 16:14:00,
2013-08-04 12:29:00,92.6,79.0,30.06,SSW,192,0.0,2.0,64,0.00,,,0.00,1009,weatherlink.com 1.10,2013-08-04 16:29:00,
2013-08-04 12:44:00,93.5,79.0,30.05,WSW,240,0.0,6.0,62,0.00,,,0.00,1102,weatherlink.com 1.10,2013-08-04 16:44:00,
2013-08-04 12:59:00,92.4,77.0,30.05,West,269,0.0,6.0,61,0.00,,,0.00,1023,weatherlink.com 1.10,2013-08-04 16:59:00,
2013-08-04 13:14:00,91.7,77.0,30.04,SW,223,0.0,3.0,62,0.00,,,0.00,281,weatherlink.com 1.10,2013-08-04 17:14:00,
2013-08-04 13:29:00,91.3,78.0,30.04,SE,146,0.0,4.0,66,0.00,,,0.00,1125,weatherlink.com 1.10,2013-08-04 17:29:00,
2013-08-04 13:44:00,90.7,78.0,30.03,SSE,164,1.0,6.0,67,0.00,,,0.00,343,weatherlink.com 1.10,2013-08-04 17:44:00,
2013-08-04 13:59:00,90.7,77.0,30.03,East,93,1.0,6.0,64,0.00,,,0.00,341,weatherlink.com 1.10,2013-08-04 17:59:00,
2013-08-04 14:14:00,88.4,78.0,30.02,ESE,123,1.0,7.0,70,0.00,,,0.00,338,weatherlink.com 1.10,2013-08-04 18:14:00,
2013-08-04 14:29:00,88.2,77.0,30.01,SE,140,1.0,7.0,70,0.00,,,0.00,250,weatherlink.com 1.10,2013-08-04 18:29:00,
2013-08-04 14:44:00,87.5,77.0,30.01,ESE,109,3.0,8.0,71,0.00,,,0.00,232,weatherlink.com 1.10,2013-08-04 18:44:00,
2013-08-04 14:59:00,87.6,77.0,30.00,SE,126,1.0,10.0,71,0.00,,,0.00,206,weatherlink.com 1.10,2013-08-04 18:59:00,
2013-08-04 15:14:00,88.4,78.0,29.99,ESE,111,8.0,8.0,71,0.00,,,0.00,991,weatherlink.com 1.10,2013-08-04 19:14:00,
2013-08-04 15:29:00,89.5,78.0,29.98,SE,134,3.0,5.0,69,0.00,,,0.00,865,weatherlink.com 1.10,2013-08-04 19:29:00,
2013-08-04 15:44:00,89.1,78.0,29.98,NE,46,3.0,7.0,70,0.00,,,0.00,967,weatherlink.com 1.10,2013-08-04 19:44:00,
2013-08-04 15:59:00,88.7,78.0,29.98,ESE,123,3.0,8.0,71,0.00,,,0.00,281,weatherlink.com 1.10,2013-08-04 19:59:00,
2013-08-04 16:14:00,89.4,78.0,29.97,SE,126,2.0,9.0,70,0.00,,,0.00,369,weatherlink.com 1.10,2013-08-04 20:14:00,
2013-08-04 16:29:00,89.8,78.0,29.97,SSE,156,5.0,9.0,68,0.00,,,0.00,812,weatherlink.com 1.10,2013-08-04 20:29:00,
2013-08-04 16:44:00,89.3,78.0,29.97,East,101,6.0,9.0,69,0.00,,,0.00,244,weatherlink.com 1.10,2013-08-04 20:44:00,
2013-08-04 16:59:00,89.6,78.0,29.97,South,189,0.0,8.0,68,0.00,,,0.00,123,weatherlink.com 1.10,2013-08-04 20:59:00,
2013-08-04 17:15:00,89.8,76.0,29.98,West,263,1.0,8.0,64,0.00,,,0.00,35,weatherlink.com 1.10,2013-08-04 21:15:00,
2013-08-04 17:29:00,85.4,75.0,30.01,North,5,9.0,14.0,70,0.00,,,0.00,23,weatherlink.com 1.10,2013-08-04 21:29:00,
2013-08-04 17:45:00,81.4,73.0,30.00,NW,317,0.0,10.0,75,0.00,,,0.00,14,weatherlink.com 1.10,2013-08-04 21:45:00,
2013-08-04 18:00:00,79.0,72.0,30.00,NNW,333,1.0,4.0,79,0.01,,,0.01,12,weatherlink.com 1.10,2013-08-04 22:00:00,
2013-08-04 18:15:00,77.1,72.0,30.01,NW,325,0.0,2.0,84,0.02,,,0.02,9,weatherlink.com 1.10,2013-08-04 22:15:00,
2013-08-04 18:30:00,76.6,72.0,30.00,NW,325,0.0,1.0,86,0.02,,,0.02,12,weatherlink.com 1.10,2013-08-04 22:30:00,
2013-08-04 18:45:00,76.3,72.0,30.02,North,5,0.0,1.0,86,0.02,,,0.02,9,weatherlink.com 1.10,2013-08-04 22:45:00,
2013-08-04 19:00:00,76.3,72.0,30.02,North,5,0.0,1.0,87,0.02,,,0.03,7,weatherlink.com 1.10,2013-08-04 23:00:00,
2013-08-04 19:15:00,76.1,72.0,30.02,South,169,1.0,3.0,88,0.04,,,0.06,5,weatherlink.com 1.10,2013-08-04 23:15:00,
2013-08-04 19:30:00,76.4,73.0,30.01,South,169,0.0,1.0,89,0.04,,,0.06,5,weatherlink.com 1.10,2013-08-04 23:30:00,
2013-08-04 19:44:00,76.9,74.0,30.01,SSE,168,1.0,2.0,90,0.04,,,0.06,0,weatherlink.com 1.10,2013-08-04 23:44:00,
2013-08-04 20:00:00,76.3,73.0,30.01,South,169,0.0,1.0,90,0.03,,,0.06,0,weatherlink.com 1.10,2013-08-05 00:00:00,
2013-08-04 20:15:00,76.4,73.0,30.01,South,169,0.0,2.0,90,0.00,,,0.06,0,weatherlink.com 1.10,2013-08-05 00:15:00,
2013-08-04 20:30:00,76.6,74.0,30.02,South,169,0.0,1.0,91,0.00,,,0.06,0,weatherlink.com 1.10,2013-08-05 00:30:00,
2013-08-04 20:45:00,76.4,74.0,30.02,South,169,0.0,0.0,91,0.00,,,0.06,0,weatherlink.com 1.10,2013-08-05 00:45:00,
2013-08-04 21:00:00,76.6,74.0,30.03,South,169,0.0,1.0,91,0.00,,,0.06,0,weatherlink.com 1.10,2013-08-05 01:00:00,
2013-08-04 21:15:00,76.4,74.0,30.03,South,169,0.0,1.0,91,0.00,,,0.06,0,weatherlink.com 1.10,2013-08-05 01:15:00,
2013-08-04 21:30:00,76.4,74.0,30.03,South,169,0.0,1.0,91,0.00,,,0.06,0,weatherlink.com 1.10,2013-08-05 01:30:00,
2013-08-04 21:45:00,76.7,74.0,30.04,South,169,0.0,0.0,92,0.00,,,0.06,0,weatherlink.com 1.10,2013-08-05 01:45:00,
2013-08-04 22:00:00,76.6,74.0,30.04,South,169,0.0,1.0,91,0.00,,,0.06,0,weatherlink.com 1.10,2013-08-05 02:00:00,
2013-08-04 22:15:00,76.6,74.0,30.03,South,169,0.0,1.0,91,0.00,,,0.06,0,weatherlink.com 1.10,2013-08-05 02:15:00,
2013-08-04 22:30:00,76.4,74.0,30.03,South,169,0.0,1.0,92,0.00,,,0.06,0,weatherlink.com 1.10,2013-08-05 02:30:00,
2013-08-04 22:45:00,76.7,74.0,30.02,South,169,0.0,1.0,92,0.00,,,0.06,0,weatherlink.com 1.10,2013-08-05 02:45:00,
2013-08-04 23:00:00,76.7,74.0,30.02,South,169,0.0,1.0,92,0.00,,,0.06,0,weatherlink.com 1.10,2013-08-05 03:00:00,
2013-08-04 23:15:00,76.6,74.0,30.03,South,169,0.0,0.0,92,0.00,,,0.06,0,weatherlink.com 1.10,2013-08-05 03:15:00,
2013-08-04 23:29:00,76.6,74.0,30.02,South,169,0.0,0.0,92,0.00,,,0.06,0,weatherlink.com 1.10,2013-08-05 03:29:00,
2013-08-04 23:45:00,76.3,74.0,30.02,South,169,0.0,1.0,92,0.00,,,0.06,0,weatherlink.com 1.10,2013-08-05 03:45:00,